Regional Weather Roundup
Issued by NWS

Home | Current Version | Previous Version | Text Only | Print | Product List | Glossary Off
Versions: 1 2 3 4 5 6 7 8 9 10 11 12 13 14 15 16 17 18 19 20 21 22 23 24 25 26 27 28 29 30 31 32 33 34 35 36 37 38 39 40 41 42 43 44 45 46 47 48 49 50

000
ASUS44 KMEG 011910
RWRTN
TENNESSEE HOURLY STATE WEATHER ROUNDUP
NATIONAL WEATHER SERVICE MEMPHIS TN
200 PM CDT FRI AUG 01 2014

TNZ002-004-019-021-049-052-054-088>092-012000-
WEST TENNESSEE

CITY           SKY/WX    TMP DP  RH WIND       PRES   REMARKS
MEMPHIS INTL   PTSUNNY   85  64  49 E10G20    30.05S
NWS MEMPHIS      N/A     82 N/A N/A MISG        N/A
JACKSON        MOSUNNY   84  61  45 NE5       30.06F
DYERSBURG      SUNNY     82  61  47 NE3       30.07F
UNION CITY     PTSUNNY   79  66  65 CALM      30.06F
PARIS          MOSUNNY   82  61  49 VRB3      30.07F
LEXINGTON      SUNNY     81  64  57 NE3       30.06S
SAVANNAH       MOSUNNY   85  65  51 NE3       30.05F
$$

TNZ008-025-027-028-033-062-065-066-012000-
NORTH MIDDLE TENNESSEE

CITY           SKY/WX    TMP DP  RH WIND       PRES   REMARKS
NASHVILLE      PTSUNNY   86  59  39 E5        30.05F
DICKSON        SUNNY     84  54  34 VRB3      30.06F
PORTLAND       SUNNY     84  55  37 VRB6      30.06F
CLARKSVILLE    MOSUNNY   87  53  31 VRB3      30.05F
LEBANON        PTSUNNY   84  57  39 E5        30.05F
SMYRNA         MOSUNNY   90  63  40 NE6       30.06F HX  91
COOKEVILLE     PTSUNNY   84  66  54 VRB6      30.07F
GALLATIN       PTSUNNY   86  61  42 SE8       30.06F
CROSSVILLE     PTSUNNY   77  61  57 CALM      30.12S
$$

TNZ061-075-076-078-094-096-097-012000-
SOUTH MIDDLE TENNESSEE

CITY           SKY/WX    TMP DP  RH WIND       PRES   REMARKS
LEWISBURG      MOSUNNY   83  59  44 N5        30.05F
FAYETTEVILLE   MOSUNNY   82  61  47 NE9G119   30.06F SQUALL
TULLAHOMA      PTSUNNY   81  63  54 N5        30.08S
WINCHESTER     SUNNY     84  63  48 SE3       30.06F
MCMINNVILLE    SUNNY     84  66  54 N8        30.07F
COLUMBIA       MOSUNNY   84  64  51 CALM      30.05F
SHELBYVILLE    MOSUNNY   86  66  51 N7G21     30.07S
$$

TNZ017-018-042-046-047-012000-
NORTHEAST TENNESSEE

CITY           SKY/WX    TMP DP  RH WIND       PRES   REMARKS
TRI CITIES     PTSUNNY   77  61  57 SE9       30.12F
ELIZABETHTON   CLEAR     73  61  64 E7        30.14S
$$

TNZ012-013-036-069-073-074-012000-
CENTRAL EAST TENNESSEE

CITY           SKY/WX    TMP DP  RH WIND       PRES   REMARKS
KNOXVILLE      MOSUNNY   82  63  52 NE9       30.05F
OAK RIDGE      CLOUDY    83  63  50 N3        30.08F
GATLINBURG     CLEAR     82  63  51 CALM      30.06F
MORRISTOWN     PTCLDY    79  63  57 NE6       30.10S
$$

TNZ083-085-099-012000-
SOUTHEAST TENNESSEE

CITY           SKY/WX    TMP DP  RH WIND       PRES   REMARKS
CHATTANOOGA    PTSUNNY   83  64  52 CALM      30.05F
$$

SKY/WX REPORTED AS FAIR MEANS FEW OR NO CLOUDS BELOW
12 THOUSAND FEET.



USA.gov is the U.S. government's official web portal to all federal, state and local government web resources and services.